[[{"header":{"parameterUnit":"m.s-1","parameterCategory":2,"la1":30.2991,"la2":30.254,"lo1":-89.0895,"lo2":-89.0444,"dy":0.0017,"dx":0.0017,"nx":28,"ny":28,"refTime":"2025-11-08T03:00:00:Z","depth":"0","parameterNumber":2,"parameterNumberName":"U-component_of_CURRENTS"},"data":[0,0,0,0,0,0,0,0,0,0,0,0,0,0,0,0,0,0,0,0,0,0,0,0,0,0,0,0,0,0,0,0,0,0,0,0,0,0,0,0,0,0,0,0,0,0,0,0,0,0,0,0,0,0,0,0,0,0,0.2122,0.2122,0,0.2127,0.2127,0.2127,0.212,0.212,0.212,0.212,0.2109,0.2109,0.2108,0,0,0,0,0,0,0,0,0,0,0,0,0,0.2067,0.2068,0.2122,0.2122,0.2122,0.2127,0.2127,0.2127,0.212,0.212,0.212,0.212,0.2109,0.2109,0.2108,0,0,0,0,0,0,0,0,0,0,0,0,0,0.2082,0.2069,0.2122,0.2121,0.2121,0.2127,0.2127,0.2127,0.212,0.212,0.212,0.212,0.2109,0.2109,0.2108,0.2107,0,0,0.2107,0.2107,0,0,0,0,0,0,0,0,0.2081,0.2083,0.2121,0.2121,0.2121,0.2125,0.2104,0.212,0.212,0.2118,0.212,0.212,0.2114,0.2113,0.2112,0.2107,0.2106,0.2107,0.2107,0.2107,0.2107,0,0,0,0,0,0,0,0.208,0.2083,0.2121,0.2121,0.2122,0.2108,0.211,0.2107,0.2114,0.2118,0.2118,0.2123,0.2114,0.2112,0.2111,0.2106,0.2107,0.2107,0.2107,0.2106,0.2108,0.2109,0,0,0,0,0,0,0.2086,0.2082,0.2121,0.2122,0.2103,0.2109,0.2111,0.2122,0.2115,0.2114,0.2123,0.2122,0.2113,0.2112,0.2111,0.2114,0.2107,0.2106,0.2106,0.2108,0.2108,0.2109,0,0,0,0,0,0,0.2085,0.209,0.2121,0.2103,0.2107,0.2111,0.2122,0.2122,0.2121,0.2119,0.2117,0.2122,0.2112,0.2111,0.211,0.2113,0.2106,0.2106,0.2108,0.2108,0.2109,0.2117,0,0,0,0,0,0,0.2084,0.209,0.2093,0.2104,0.2108,0.2125,0.2123,0.2122,0.2125,0.2125,0.2118,0.2117,0.2112,0.211,0.2109,0.2113,0.2106,0.2107,0.2108,0.2108,0.2117,0.2118,0.2119,0,0,0,0,0,0.2082,0.2088,0.2094,0.2098,0.2116,0.2126,0.2126,0.2126,0.2125,0.2125,0.2121,0.2117,0.2113,0.211,0.2109,0.2112,0.2107,0.2108,0.2108,0.2116,0.2118,0.2119,0,0,0,0,0,0,0.2058,0.2088,0.2095,0.2107,0.2117,0.2125,0.2124,0.2128,0.2125,0.2124,0.2119,0.2117,0.2117,0.2115,0.2112,0.2115,0.211,0.2111,0.2116,0.2118,0.2119,0.2135,0.2105,0,0,0,0,0,0.2058,0.2074,0.2095,0.2103,0.211,0.2118,0.212,0.2125,0.2128,0.2126,0.2121,0.2119,0.2119,0.2118,0.2115,0.2116,0.2176,0.2119,0.212,0.2121,0.2134,0.219,0.2199,0.2111,0.2111,0.2111,0,0,0.2049,0.2068,0.2075,0.2099,0.2106,0.2116,0.2118,0.2127,0.2132,0.2125,0.2123,0.2121,0.212,0.2121,0.2121,0.2119,0.2194,0.2122,0.2123,0.2136,0.2192,0.2201,0.2209,0.2111,0.2111,0.2111,0,0,0.2042,0.2059,0.2072,0.2083,0.2103,0.2111,0.2115,0.2127,0.2129,0.2132,0.2129,0.2132,0.2127,0.213,0.213,0.2138,0.2196,0.2135,0.2155,0.2209,0.2217,0.2225,0.2387,0.2409,0.2137,0.2137,0.2137,0,0.2027,0.2055,0.2073,0.2088,0.2099,0.211,0.2123,0.2126,0.2133,0.2144,0.2133,0.2144,0.2133,0.215,0.2149,0.2141,0.222,0.2148,0.2213,0.2221,0.2228,0.2392,0.2416,0.2137,0.2137,0.2137,0.2137,0,0.2037,0.2054,0.2061,0.2089,0.21,0.2112,0.2128,0.2136,0.214,0.215,0.2167,0.2159,0.2174,0.2163,0.2156,0.2201,0.2262,0.2208,0.2212,0.2238,0.2409,0.2434,0.2138,0.2138,0.2138,0.2138,0,0,0.2014,0.206,0.2062,0.2083,0.2106,0.2121,0.2132,0.2158,0.2184,0.2179,0.222,0.22,0.221,0.2213,0.2207,0.2242,0.2376,0.225,0.2253,0.242,0.2594,0.2679,0.2715,0.2331,0.2333,0.2335,0.272,0,0.2016,0.2052,0.2072,0.2098,0.212,0.2139,0.2156,0.2179,0.2199,0.2239,0.2242,0.2276,0.2225,0.2251,0.2271,0.2347,0.243,0.2283,0.2536,0.2546,0.2622,0.274,0.2686,0.3025,0.2745,0.2749,0.2752,0,0.2023,0.2051,0.2082,0.2131,0.2142,0.2156,0.2207,0.2225,0.2276,0.2299,0.2326,0.2347,0.2415,0.2354,0.252,0.2434,0.2523,0.2579,0.2594,0.2681,0.2674,0.2937,0.3081,0.2987,0.2791,0.2788,0.2785,0,0.2017,0.2059,0.209,0.2103,0.2152,0.2172,0.2198,0.2243,0.2293,0.2356,0.2424,0.2469,0.2558,0.2615,0.2744,0.2644,0.2968,0.284,0.3021,0.3033,0.3042,0.3049,0.3123,0.2972,0.2972,0.2971,0.2969,0,0.2021,0.2044,0.2092,0.2108,0.2152,0.2183,0.2237,0.227,0.2357,0.2434,0.2464,0.2568,0.2623,0.28,0.2845,0.3076,0.3068,0.3088,0.3133,0.3052,0.3055,0.3013,0.2933,0.2985,0.2982,0.2979,0.2977,0,0.2014,0.204,0.208,0.2134,0.215,0.2184,0.227,0.2331,0.2407,0.252,0.2563,0.2727,0.2958,0.3082,0.3269,0.3273,0.3367,0.351,0.3478,0.351,0.3492,0.3414,0.3454,0.3348,0.3749,0.3753,0.3757,0,0.2024,0.204,0.2093,0.2133,0.2159,0.2212,0.2266,0.2338,0.2412,0.2613,0.2692,0.2971,0.316,0.3544,0.3624,0.3832,0.362,0.3874,0.3615,0.3549,0.3495,0.3276,0.3162,0.3683,0.3686,0.3688,0.369,0,0.2063,0.2071,0.2123,0.2182,0.2238,0.228,0.2357,0.2422,0.2526,0.2672,0.2917,0.3104,0.3466,0.3671,0.3946,0.4006,0.3683,0.3925,0.3828,0.3452,0.3246,0.3147,0.3447,0.371,0.3708,0.3706,0.3705,0.3705,0.2128,0.2162,0.2234,0.2287,0.2332,0.2374,0.2411,0.2513,0.2661,0.2849,0.3024,0.3282,0.3578,0.3952,0.401,0.4042,0.388,0.3905,0.3841,0.3644,0.3433,0.3843,0.4138,0.4139,0.4139,0.4139,0.414,0,0.2255,0.2299,0.2347,0.2412,0.2447,0.2441,0.2511,0.2552,0.2713,0.2896,0.3112,0.3428,0.3699,0.3875,0.4034,0.3943,0.3694,0.3851,0.348,0.3382,0.3766,0.3649,0.3882,0.3882,0.3883,0.3883,0.3883,0.3883,0.2355,0.2443,0.2442,0.2528,0.2546,0.257,0.2596,0.2652,0.2759,0.2958,0.311,0.3264,0.3569,0.3888,0.3902,0.3817,0.3455,0.3406,0.3298,0.353,0.3525,0.352,0.3388,0.3563,0.3563,0.2775,0.277,0.2765]},{"header":{"parameterUnit":"m.s-1","parameterCategory":2,"la1":30.2991,"la2":30.254,"lo1":-89.0895,"lo2":-89.0444,"dy":0.0017,"dx":0.0017,"nx":28,"ny":28,"refTime":"2025-11-08T03:00:00:Z","depth":"0","parameterNumber":3,"parameterNumberName":"V-component_of_CURRENTS"},"data":[0,0,0,0,0,0,0,0,0,0,0,0,0,0,0,0,0,0,0,0,0,0,0,0,0,0,0,0,0,0,0,0,0,0,0,0,0,0,0,0,0,0,0,0,0,0,0,0,0,0,0,0,0,0,0,0,0,0,-0.0482,-0.0482,0,-0.0508,-0.0509,-0.0509,-0.053,-0.053,-0.053,-0.053,-0.058,-0.0581,-0.0582,0,0,0,0,0,0,0,0,0,0,0,0,0,-0.0459,-0.0459,-0.0482,-0.0482,-0.0482,-0.0508,-0.0509,-0.0509,-0.053,-0.053,-0.053,-0.053,-0.0579,-0.0581,-0.0582,0,0,0,0,0,0,0,0,0,0,0,0,0,-0.0476,-0.0459,-0.0482,-0.0496,-0.0497,-0.0508,-0.0509,-0.0509,-0.053,-0.053,-0.053,-0.053,-0.0579,-0.058,-0.0582,-0.0587,0,0,-0.0587,-0.0588,0,0,0,0,0,0,0,0,-0.0475,-0.0476,-0.0493,-0.0495,-0.0497,-0.0516,-0.0519,-0.0536,-0.053,-0.0517,-0.053,-0.0531,-0.056,-0.0563,-0.0568,-0.0589,-0.0591,-0.0587,-0.0588,-0.0589,-0.059,0,0,0,0,0,0,0,-0.0473,-0.0475,-0.0492,-0.0494,-0.0496,-0.0504,-0.0507,-0.0522,-0.0537,-0.0519,-0.052,-0.0523,-0.0561,-0.0566,-0.0569,-0.0592,-0.0587,-0.0589,-0.059,-0.0591,-0.0638,-0.0638,0,0,0,0,0,0,-0.0469,-0.0474,-0.0492,-0.0493,-0.0486,-0.0504,-0.0507,-0.051,-0.0537,-0.0541,-0.0523,-0.0524,-0.0563,-0.0567,-0.0571,-0.0597,-0.0589,-0.0591,-0.0592,-0.0638,-0.0638,-0.0639,0,0,0,0,0,0,-0.0469,-0.047,-0.0491,-0.0484,-0.0488,-0.0504,-0.0507,-0.051,-0.0515,-0.054,-0.0544,-0.0524,-0.0563,-0.0568,-0.0586,-0.0598,-0.0592,-0.0593,-0.0638,-0.0638,-0.0638,-0.0637,0,0,0,0,0,0,-0.0468,-0.047,-0.0469,-0.0484,-0.0488,-0.0496,-0.0507,-0.051,-0.0516,-0.0518,-0.0543,-0.0547,-0.0564,-0.0584,-0.0588,-0.06,-0.0594,-0.0637,-0.0638,-0.0638,-0.0637,-0.0637,-0.0638,0,0,0,0,0,-0.0467,-0.0466,-0.0469,-0.0471,-0.0486,-0.0496,-0.0499,-0.0512,-0.0516,-0.0517,-0.0535,-0.0547,-0.059,-0.0585,-0.059,-0.0603,-0.0637,-0.0638,-0.0638,-0.0636,-0.0637,-0.0638,0,0,0,0,0,0,-0.0454,-0.0468,-0.0472,-0.0475,-0.0484,-0.05,-0.0502,-0.0509,-0.0523,-0.0526,-0.0548,-0.0554,-0.0575,-0.0586,-0.058,-0.0618,-0.0616,-0.0618,-0.0613,-0.0614,-0.0614,-0.0625,-0.0596,0,0,0,0,0,-0.045,-0.0455,-0.0467,-0.0469,-0.0472,-0.0485,-0.049,-0.0499,-0.0514,-0.052,-0.0537,-0.0558,-0.0581,-0.0594,-0.0611,-0.063,-0.0623,-0.0642,-0.0643,-0.0643,-0.0655,-0.0666,-0.0669,-0.064,-0.064,-0.064,0,0,-0.0446,-0.0454,-0.0456,-0.0467,-0.0474,-0.0481,-0.0489,-0.0496,-0.0507,-0.0523,-0.0542,-0.0558,-0.0585,-0.0608,-0.0619,-0.062,-0.0636,-0.0644,-0.0644,-0.0656,-0.0667,-0.067,-0.0672,-0.0641,-0.0641,-0.0641,0,0,-0.0438,-0.0445,-0.0446,-0.0453,-0.0464,-0.0475,-0.0475,-0.049,-0.0502,-0.0518,-0.0537,-0.0562,-0.0586,-0.0616,-0.0633,-0.0646,-0.0636,-0.0647,-0.0664,-0.0674,-0.0676,-0.0679,-0.0625,-0.0623,-0.065,-0.065,-0.065,0,-0.043,-0.0435,-0.0447,-0.045,-0.0458,-0.0471,-0.0475,-0.049,-0.0509,-0.0522,-0.0522,-0.0571,-0.0595,-0.0636,-0.0649,-0.065,-0.063,-0.0659,-0.0675,-0.0677,-0.068,-0.0625,-0.0622,-0.065,-0.065,-0.065,-0.065,0,-0.0425,-0.043,-0.0431,-0.0443,-0.0452,-0.0456,-0.0478,-0.049,-0.0503,-0.0519,-0.0552,-0.0584,-0.0611,-0.0628,-0.0649,-0.0683,-0.065,-0.067,-0.0673,-0.0683,-0.0623,-0.062,-0.065,-0.065,-0.065,-0.065,0,0,-0.0399,-0.0423,-0.0422,-0.0422,-0.0449,-0.0448,-0.0476,-0.0499,-0.0496,-0.0538,-0.0537,-0.0613,-0.0622,-0.0643,-0.0667,-0.0696,-0.0688,-0.0696,-0.0696,-0.064,-0.0659,-0.0583,-0.0572,-0.071,-0.0711,-0.0712,-0.0592,0,-0.0388,-0.0391,-0.0414,-0.0414,-0.0413,-0.0443,-0.0457,-0.0482,-0.0496,-0.0495,-0.0554,-0.0552,-0.0628,-0.0616,-0.0672,-0.0671,-0.0689,-0.0715,-0.0661,-0.0658,-0.0589,-0.0571,-0.0567,-0.0457,-0.0589,-0.0589,-0.0588,0,-0.037,-0.0375,-0.0375,-0.0387,-0.0389,-0.0391,-0.0402,-0.0413,-0.0437,-0.0442,-0.0483,-0.0498,-0.0544,-0.059,-0.064,-0.0648,-0.0666,-0.0677,-0.0673,-0.061,-0.058,-0.0479,-0.0447,-0.0665,-0.0584,-0.0585,-0.0585,0,-0.0325,-0.0343,-0.034,-0.0345,-0.0364,-0.0367,-0.0372,-0.0394,-0.036,-0.0384,-0.0324,-0.0427,-0.0376,-0.0486,-0.0511,-0.0573,-0.0522,-0.06,-0.055,-0.0541,-0.0533,-0.0523,-0.0711,-0.0646,-0.0646,-0.0646,-0.0647,0,-0.0296,-0.0285,-0.0312,-0.0303,-0.0272,-0.0313,-0.0268,-0.0286,-0.0257,-0.0168,-0.0271,-0.0174,-0.0346,-0.033,-0.0449,-0.0448,-0.0466,-0.0542,-0.0518,-0.0525,-0.0516,-0.0701,-0.0825,-0.0642,-0.0643,-0.0644,-0.0645,0,-0.0223,-0.0255,-0.0231,-0.0248,-0.0242,-0.0209,-0.0155,-0.0097,-0.0096,0.0032,0.0053,0.0065,0.0094,-0.0044,-0.013,-0.0275,-0.0437,-0.0338,-0.0296,-0.0272,-0.0492,-0.0614,-0.072,-0.0816,-0.0304,-0.0302,-0.03,0,-0.0172,-0.0163,-0.0156,-0.0105,-0.0098,-0.0056,0.0005,-0.0006,0.0083,0.0215,0.0321,0.0392,0.0503,0.0416,0.0156,-0.0011,-0.0253,-0.0143,-0.0307,-0.0495,-0.0615,-0.0712,-0.0797,-0.0269,-0.0266,-0.0265,-0.0263,0,-0.005,-0.0058,-0.0025,0.0062,0.013,0.0198,0.0282,0.0373,0.0414,0.0556,0.0787,0.0894,0.082,0.0695,0.0439,0.0252,-0.0316,-0.0111,-0.0349,-0.0638,-0.0717,-0.0797,-0.0315,-0.0248,-0.0249,-0.0251,-0.0251,-0.0252,0.0084,0.014,0.0192,0.0276,0.0357,0.048,0.0566,0.0694,0.0878,0.1115,0.1171,0.1407,0.1114,0.0783,0.0481,-0.0112,-0.0145,-0.0334,-0.0464,-0.0542,-0.0674,-0.0116,-0.0005,-0.0005,-0.0005,-0.0006,-0.0006,0,0.0284,0.0333,0.0421,0.0533,0.0651,0.0629,0.0788,0.09,0.1158,0.1422,0.1645,0.1711,0.13,0.0794,0.0021,-0.0407,-0.0647,-0.0664,-0.088,-0.0952,-0.0489,-0.0531,-0.0478,-0.0478,-0.0478,-0.0478,-0.0477,-0.0477,0.0417,0.0542,0.0555,0.078,0.0854,0.1005,0.1089,0.1277,0.1477,0.1866,0.2085,0.2224,0.1861,0.0388,-0.0624,-0.0867,-0.1237,-0.125,-0.1427,-0.1207,-0.119,-0.1174,-0.1248,-0.1346,-0.1347,-0.1872,-0.1877,-0.1881]}],[{"header":{"parameterUnit":"m.s-1","parameterCategory":2,"la1":30.2991,"la2":30.254,"lo1":-89.0895,"lo2":-89.0444,"dy":0.0017,"dx":0.0017,"nx":28,"ny":28,"refTime":"2025-11-08T03:00:00:Z","depth":"2","parameterNumber":2,"parameterNumberName":"U-component_of_CURRENTS"},"data":[0,0,0,0,0,0,0,0,0,0,0,0,0,0,0,0,0,0,0,0,0,0,0,0,0,0,0,0,0,0,0,0,0,0,0,0,0,0,0,0,0,0,0,0,0,0,0,0,0,0,0,0,0,0,0,0,0,0,0.1374,0.1375,0,0.1461,0.1462,0.1463,0.1516,0.1517,0.1517,0.1517,0.1556,0.1557,0.1557,0,0,0,0,0,0,0,0,0,0,0,0,0,0.1276,0.1277,0.1374,0.1375,0.1376,0.1461,0.1462,0.1463,0.1516,0.1517,0.1517,0.1517,0.1556,0.1557,0.1557,0,0,0,0,0,0,0,0,0,0,0,0,0,0.1336,0.1277,0.1374,0.1413,0.1417,0.146,0.1462,0.1463,0.1516,0.1517,0.1517,0.1517,0.1555,0.1556,0.1558,0.1557,0,0,0.1561,0.1562,0,0,0,0,0,0,0,0,0.1332,0.1339,0.1406,0.141,0.1415,0.1478,0.1441,0.1492,0.1516,0.1479,0.1517,0.1518,0.1525,0.1529,0.1545,0.1558,0.156,0.1561,0.1562,0.1562,0.1563,0,0,0,0,0,0,0,0.1328,0.1336,0.1408,0.1407,0.1413,0.1433,0.1442,0.1452,0.1498,0.1482,0.1486,0.1495,0.1527,0.1544,0.1546,0.1561,0.1561,0.1562,0.1563,0.1563,0.1627,0.1628,0,0,0,0,0,0,0.1316,0.1332,0.1406,0.1411,0.1374,0.1434,0.1444,0.1458,0.1499,0.1506,0.1495,0.1498,0.1542,0.1545,0.1548,0.159,0.1562,0.1564,0.1564,0.1626,0.1627,0.1628,0,0,0,0,0,0,0.1313,0.1322,0.1402,0.1373,0.1385,0.1436,0.145,0.1459,0.1487,0.1509,0.1515,0.1515,0.1542,0.1546,0.1574,0.159,0.1564,0.1565,0.1625,0.1627,0.1628,0.1647,0,0,0,0,0,0,0.131,0.132,0.1328,0.1372,0.1386,0.1436,0.145,0.146,0.1491,0.1496,0.1528,0.1532,0.1543,0.1572,0.1575,0.1591,0.1566,0.1624,0.1626,0.1627,0.1645,0.1649,0.1653,0,0,0,0,0,0.1307,0.1318,0.1328,0.1337,0.1394,0.1436,0.1446,0.1483,0.1492,0.1508,0.1533,0.1531,0.1586,0.1574,0.1577,0.1594,0.1623,0.1625,0.1627,0.1644,0.1649,0.1653,0,0,0,0,0,0,0.1281,0.1325,0.1337,0.1362,0.1398,0.1446,0.1464,0.1486,0.1519,0.1525,0.1542,0.1548,0.1581,0.1583,0.1569,0.1619,0.1604,0.1607,0.1616,0.1621,0.1624,0.16,0.1567,0,0,0,0,0,0.1277,0.1295,0.134,0.1359,0.1377,0.1419,0.1441,0.1469,0.1503,0.152,0.1546,0.1569,0.1591,0.1602,0.1624,0.1644,0.1682,0.1659,0.1662,0.1665,0.1649,0.171,0.1718,0.1636,0.1636,0.1636,0,0,0.127,0.1298,0.1308,0.1355,0.1384,0.1418,0.1434,0.1473,0.1502,0.1515,0.1562,0.1584,0.1601,0.1634,0.1648,0.1638,0.1723,0.1668,0.167,0.1652,0.1713,0.1721,0.1728,0.1637,0.1637,0.1637,0,0,0.1271,0.1293,0.1312,0.1344,0.1392,0.142,0.1432,0.1488,0.1513,0.1557,0.1576,0.1603,0.1645,0.1658,0.1668,0.1699,0.1742,0.1715,0.1709,0.177,0.1777,0.1783,0.1904,0.1921,0.1713,0.1713,0.1713,0,0.1261,0.1295,0.1324,0.1355,0.1382,0.1421,0.1452,0.1483,0.1543,0.1562,0.1575,0.164,0.1652,0.1679,0.1692,0.1705,0.177,0.1691,0.1775,0.1781,0.1787,0.1909,0.1927,0.1714,0.1714,0.1714,0.1714,0,0.1283,0.1312,0.1326,0.1376,0.1407,0.144,0.1486,0.1521,0.1555,0.1588,0.1634,0.1659,0.1696,0.1706,0.1705,0.1751,0.1799,0.1777,0.1762,0.1797,0.1924,0.1942,0.1716,0.1716,0.1715,0.1715,0,0,0.1258,0.1326,0.1333,0.136,0.1422,0.1452,0.1493,0.1542,0.1581,0.1623,0.1676,0.1691,0.1711,0.1721,0.1732,0.1764,0.1881,0.1785,0.1788,0.1903,0.2077,0.2059,0.2078,0.188,0.1882,0.1883,0.2171,0,0.1267,0.1319,0.1354,0.1405,0.1437,0.1481,0.152,0.1568,0.1618,0.1684,0.1696,0.1758,0.1716,0.1757,0.1774,0.1868,0.192,0.1808,0.2026,0.2033,0.2009,0.2094,0.1906,0.214,0.219,0.2193,0.2195,0,0.1279,0.1314,0.1361,0.1427,0.1445,0.148,0.1553,0.1598,0.1677,0.1721,0.1762,0.1805,0.1869,0.1827,0.1975,0.1916,0.1986,0.204,0.2052,0.2027,0.2046,0.21,0.2172,0.2226,0.2224,0.2222,0.2219,0,0.1253,0.132,0.1355,0.1379,0.1457,0.1484,0.1529,0.1606,0.1678,0.1763,0.1855,0.1897,0.1996,0.2044,0.2166,0.209,0.2357,0.2275,0.2324,0.2328,0.2201,0.2188,0.2359,0.2359,0.2358,0.2357,0.2356,0,0.1252,0.1283,0.1347,0.137,0.1428,0.1477,0.1561,0.161,0.1726,0.1826,0.188,0.1983,0.2054,0.2213,0.2246,0.2389,0.244,0.2346,0.2391,0.221,0.2196,0.2266,0.2251,0.2368,0.2366,0.2364,0.2362,0,0.123,0.1268,0.1318,0.1391,0.1422,0.1465,0.1606,0.1672,0.1784,0.193,0.1979,0.2132,0.2299,0.241,0.2562,0.2544,0.2647,0.2678,0.2497,0.2509,0.2556,0.2539,0.2738,0.274,0.2741,0.2742,0.2743,0,0.1231,0.1249,0.1333,0.1378,0.1417,0.1502,0.1569,0.1683,0.1766,0.2008,0.2076,0.2301,0.24,0.2664,0.2682,0.2794,0.2773,0.2681,0.2435,0.2567,0.2591,0.2572,0.2554,0.2327,0.2325,0.2323,0.2321,0,0.1229,0.1253,0.1297,0.1384,0.1453,0.1539,0.1637,0.1713,0.1857,0.1979,0.2147,0.2256,0.2501,0.2514,0.2685,0.2683,0.2629,0.2636,0.2869,0.223,0.2193,0.2212,0.2206,0.2302,0.2304,0.2306,0.2307,0.2307,0.1231,0.1253,0.1308,0.1377,0.147,0.1536,0.1565,0.1667,0.1767,0.1902,0.2077,0.2188,0.2317,0.2421,0.2433,0.2451,0.2566,0.2445,0.2446,0.2451,0.2321,0.2284,0.2393,0.2395,0.2397,0.2399,0.24,0,0.1198,0.1226,0.1302,0.136,0.1412,0.1488,0.1579,0.156,0.1595,0.1788,0.1891,0.1865,0.1964,0.2101,0.2103,0.2144,0.205,0.2057,0.1913,0.1937,0.1957,0.1792,0.173,0.1727,0.1724,0.1722,0,0,0.1183,0.1195,0.1209,0.1255,0.1319,0.1337,0.1357,0.1342,0.143,0.1464,0.1561,0.1809,0.2017,0.1815,0.1842,0.1787,0.1815,0.1715,0.2263,0.2115,0.213,0.2214,0.1995,0,0,0,0,0]},{"header":{"parameterUnit":"m.s-1","parameterCategory":2,"la1":30.2991,"la2":30.254,"lo1":-89.0895,"lo2":-89.0444,"dy":0.0017,"dx":0.0017,"nx":28,"ny":28,"refTime":"2025-11-08T03:00:00:Z","depth":"2","parameterNumber":3,"parameterNumberName":"V-component_of_CURRENTS"},"data":[0,0,0,0,0,0,0,0,0,0,0,0,0,0,0,0,0,0,0,0,0,0,0,0,0,0,0,0,0,0,0,0,0,0,0,0,0,0,0,0,0,0,0,0,0,0,0,0,0,0,0,0,0,0,0,0,0,0,-0.0213,-0.0214,0,-0.0303,-0.0304,-0.0305,-0.037,-0.0371,-0.0371,-0.0371,-0.0454,-0.0456,-0.0458,0,0,0,0,0,0,0,0,0,0,0,0,0,-0.0143,-0.0144,-0.0213,-0.0214,-0.0215,-0.0303,-0.0304,-0.0305,-0.037,-0.0371,-0.0371,-0.0372,-0.0454,-0.0456,-0.0458,0,0,0,0,0,0,0,0,0,0,0,0,0,-0.0198,-0.0144,-0.0213,-0.0257,-0.0262,-0.0302,-0.0304,-0.0306,-0.037,-0.0371,-0.0371,-0.0372,-0.0453,-0.0455,-0.0458,-0.0461,0,0,-0.0466,-0.0467,0,0,0,0,0,0,0,0,-0.0194,-0.02,-0.025,-0.0254,-0.026,-0.0325,-0.031,-0.0357,-0.037,-0.033,-0.0371,-0.0372,-0.0409,-0.0416,-0.0432,-0.0465,-0.0468,-0.0466,-0.0468,-0.0469,-0.047,0,0,0,0,0,0,0,-0.0191,-0.0197,-0.025,-0.0251,-0.0257,-0.0288,-0.0296,-0.0319,-0.0365,-0.0334,-0.0338,-0.0346,-0.0412,-0.043,-0.0435,-0.0469,-0.0466,-0.0469,-0.047,-0.0471,-0.0546,-0.0547,0,0,0,0,0,0,-0.0175,-0.0193,-0.0247,-0.0252,-0.0227,-0.0289,-0.0298,-0.0304,-0.0365,-0.0375,-0.0346,-0.0349,-0.0425,-0.0432,-0.0438,-0.048,-0.0469,-0.0472,-0.0473,-0.0546,-0.0546,-0.0547,0,0,0,0,0,0,-0.0173,-0.0178,-0.0243,-0.0224,-0.0235,-0.0289,-0.0296,-0.0306,-0.0332,-0.0375,-0.0385,-0.0362,-0.0426,-0.0434,-0.0468,-0.0482,-0.0473,-0.0475,-0.0545,-0.0546,-0.0547,-0.054,0,0,0,0,0,0,-0.017,-0.0177,-0.018,-0.0223,-0.0235,-0.0267,-0.0295,-0.0307,-0.0335,-0.034,-0.0392,-0.04,-0.0427,-0.0464,-0.0471,-0.0485,-0.0477,-0.0545,-0.0546,-0.0546,-0.054,-0.054,-0.0541,0,0,0,0,0,-0.0167,-0.0164,-0.0179,-0.0186,-0.0235,-0.0267,-0.0276,-0.0318,-0.0335,-0.0345,-0.0383,-0.0399,-0.0474,-0.0466,-0.0474,-0.049,-0.0545,-0.0546,-0.0546,-0.054,-0.054,-0.0541,0,0,0,0,0,0,-0.0136,-0.0172,-0.0189,-0.0198,-0.023,-0.0278,-0.0291,-0.0317,-0.0356,-0.0364,-0.0403,-0.0414,-0.045,-0.0467,-0.0458,-0.0513,-0.0512,-0.0514,-0.0504,-0.0505,-0.0505,-0.0477,-0.048,0,0,0,0,0,-0.0129,-0.0137,-0.0177,-0.0185,-0.0199,-0.0245,-0.0264,-0.0293,-0.033,-0.0349,-0.0387,-0.0425,-0.0458,-0.0478,-0.0508,-0.0535,-0.0539,-0.055,-0.0551,-0.0551,-0.0533,-0.0574,-0.0577,-0.055,-0.055,-0.055,0,0,-0.012,-0.014,-0.0146,-0.0179,-0.0208,-0.0224,-0.0259,-0.0287,-0.0305,-0.035,-0.0387,-0.0427,-0.0465,-0.0502,-0.0519,-0.0519,-0.0556,-0.0552,-0.0552,-0.0534,-0.0575,-0.0578,-0.058,-0.055,-0.055,-0.055,0,0,-0.0102,-0.0122,-0.0124,-0.0147,-0.0186,-0.0213,-0.0219,-0.0271,-0.0299,-0.0339,-0.0377,-0.0419,-0.0473,-0.0503,-0.0524,-0.0541,-0.0557,-0.0559,-0.0542,-0.0583,-0.0585,-0.0587,-0.0574,-0.0576,-0.0561,-0.0561,-0.0561,0,-0.009,-0.0096,-0.013,-0.0139,-0.0152,-0.0204,-0.0208,-0.0244,-0.0302,-0.032,-0.0348,-0.0434,-0.047,-0.0508,-0.0521,-0.0542,-0.0552,-0.0538,-0.0583,-0.0585,-0.0588,-0.0574,-0.0576,-0.0561,-0.0561,-0.0561,-0.0561,0,-0.0075,-0.0082,-0.0085,-0.0109,-0.0129,-0.0142,-0.0187,-0.0216,-0.0258,-0.0297,-0.0352,-0.0413,-0.0462,-0.0488,-0.0512,-0.0549,-0.0545,-0.0579,-0.0579,-0.059,-0.0575,-0.0576,-0.056,-0.056,-0.056,-0.056,0,0,-0.0043,-0.0067,-0.007,-0.007,-0.0112,-0.0124,-0.015,-0.0185,-0.0199,-0.0276,-0.0298,-0.0379,-0.0422,-0.0447,-0.0495,-0.0531,-0.0558,-0.0561,-0.0564,-0.0542,-0.0614,-0.0609,-0.0609,-0.0613,-0.0614,-0.0615,-0.0589,0,-0.0021,-0.0014,-0.0039,-0.0038,-0.0036,-0.0082,-0.0098,-0.014,-0.0186,-0.0223,-0.03,-0.0344,-0.0405,-0.0435,-0.0486,-0.0535,-0.0565,-0.0558,-0.0611,-0.0611,-0.0602,-0.0613,-0.0596,-0.0573,-0.059,-0.0591,-0.0591,0,0.0,0.0005,0.0015,0.0008,0.0003,-0.0011,-0.0037,-0.0061,-0.0123,-0.0158,-0.0225,-0.0284,-0.0344,-0.0403,-0.0493,-0.0491,-0.0548,-0.0588,-0.0589,-0.0585,-0.0609,-0.057,-0.0575,-0.0593,-0.0593,-0.0593,-0.0593,0,0.0046,0.0042,0.0057,0.0051,0.003,0.002,0.0001,-0.0048,-0.0046,-0.0122,-0.0113,-0.0227,-0.0252,-0.0362,-0.0446,-0.0481,-0.0526,-0.0588,-0.0627,-0.0625,-0.0617,-0.0614,-0.0653,-0.0653,-0.0653,-0.0653,-0.0653,0,0.0082,0.0091,0.0075,0.0081,0.0096,0.0057,0.0062,0.0027,0.0006,0.0041,-0.0081,-0.0061,-0.0247,-0.0295,-0.0409,-0.0498,-0.0501,-0.0609,-0.0627,-0.0612,-0.0608,-0.0638,-0.0637,-0.0652,-0.0652,-0.0652,-0.0652,0,0.0117,0.011,0.0126,0.0115,0.0114,0.0115,0.0121,0.0139,0.0108,0.0156,0.0146,0.0073,-0.0003,-0.0154,-0.03,-0.0416,-0.0524,-0.0555,-0.0494,-0.0507,-0.0604,-0.0602,-0.0614,-0.0613,-0.0613,-0.0613,-0.0613,0,0.0129,0.0141,0.0153,0.0178,0.0168,0.0176,0.0199,0.0179,0.0226,0.0265,0.0317,0.025,0.0228,0.0024,-0.0216,-0.0411,-0.0459,-0.0515,-0.0601,-0.0587,-0.0604,-0.0603,-0.0602,-0.0572,-0.0571,-0.0571,-0.0571,0,0.0152,0.0153,0.0173,0.0229,0.0258,0.0309,0.0349,0.0412,0.0433,0.0492,0.0574,0.0556,0.0348,0.0133,-0.0155,-0.0302,-0.0498,-0.0515,-0.0521,-0.0591,-0.0548,-0.0565,-0.0565,-0.0567,-0.0568,-0.0568,-0.0568,-0.0568,0.016,0.0187,0.0225,0.0278,0.034,0.0445,0.0512,0.0592,0.0691,0.0795,0.0768,0.0764,0.0481,0.0111,-0.0147,-0.0436,-0.0457,-0.0567,-0.0568,-0.057,-0.0576,-0.0537,-0.0551,-0.0551,-0.0552,-0.0552,-0.0552,0,0.0175,0.022,0.0279,0.0358,0.0454,0.0481,0.0627,0.0704,0.0852,0.0936,0.0981,0.0763,0.0505,0.0207,-0.0216,-0.0484,-0.0528,-0.0562,-0.0562,-0.0564,-0.0566,-0.0573,-0.0546,-0.0547,-0.0547,-0.0547,0,0,0.0184,0.0247,0.0287,0.0438,0.0519,0.0677,0.0781,0.0897,0.0992,0.1073,0.1086,0.0991,0.0629,0.033,-0.005,-0.028,-0.0358,-0.0334,-0.0316,-0.0274,-0.0272,-0.0552,-0.0562,0,0,0,0,0]}],[{"header":{"parameterUnit":"m.s-1","parameterCategory":2,"la1":30.2991,"la2":30.254,"lo1":-89.0895,"lo2":-89.0444,"dy":0.0017,"dx":0.0017,"nx":28,"ny":28,"refTime":"2025-11-08T03:00:00:Z","depth":"4","parameterNumber":2,"parameterNumberName":"U-component_of_CURRENTS"},"data":[0,0,0,0,0,0,0,0,0,0,0,0,0,0,0,0,0,0,0,0,0,0,0,0,0,0,0,0,0,0,0,0,0,0,0,0,0,0,0,0,0,0,0,0,0,0,0,0,0,0,0,0,0,0,0,0,0,0,0.0742,0.0742,0,0.0803,0.0803,0.0804,0.0846,0.0847,0.0847,0.0848,0.0908,0.0909,0.091,0,0,0,0,0,0,0,0,0,0,0,0,0,0.0662,0.0663,0.0742,0.0743,0.0743,0.0803,0.0803,0.0804,0.0846,0.0847,0.0847,0.0848,0.0908,0.0909,0.091,0,0,0,0,0,0,0,0,0,0,0,0,0,0.0706,0.0664,0.0741,0.0773,0.0776,0.0802,0.0803,0.0804,0.0846,0.0847,0.0847,0.0848,0.0907,0.0909,0.0911,0.0908,0,0,0.0916,0.0917,0,0,0,0,0,0,0,0,0.0703,0.0708,0.0767,0.0771,0.0775,0.0819,0.0798,0.0839,0.0846,0.0818,0.0848,0.0848,0.0879,0.0883,0.0891,0.0911,0.0913,0.0916,0.0917,0.0918,0.0919,0,0,0,0,0,0,0,0.07,0.0706,0.0764,0.0768,0.0773,0.0784,0.0791,0.0806,0.0842,0.082,0.0824,0.0833,0.0881,0.0889,0.0892,0.0914,0.0916,0.0918,0.0919,0.0919,0.1008,0.1009,0,0,0,0,0,0,0.0695,0.0703,0.0762,0.0766,0.0742,0.0785,0.0793,0.0803,0.0842,0.085,0.0832,0.0835,0.0885,0.089,0.0895,0.0963,0.0918,0.092,0.0921,0.1006,0.1008,0.1009,0,0,0,0,0,0,0.0693,0.07,0.076,0.0737,0.0746,0.0786,0.0797,0.0804,0.0834,0.0852,0.0859,0.0859,0.0886,0.0892,0.0935,0.0963,0.092,0.0922,0.1005,0.1007,0.1009,0.1056,0,0,0,0,0,0,0.0691,0.0699,0.0714,0.0737,0.0747,0.0792,0.0797,0.0804,0.0838,0.0842,0.0876,0.0881,0.0887,0.0933,0.0937,0.0965,0.0923,0.1003,0.1006,0.1008,0.1053,0.1059,0.1065,0,0,0,0,0,0.0688,0.0703,0.0715,0.0723,0.0764,0.0793,0.08,0.0829,0.0839,0.0857,0.0885,0.0881,0.0951,0.0935,0.094,0.0969,0.1002,0.1005,0.1008,0.105,0.1058,0.1064,0,0,0,0,0,0,0.0678,0.0709,0.0723,0.0748,0.0777,0.0801,0.0823,0.0839,0.0875,0.0886,0.0899,0.0906,0.0952,0.0954,0.0937,0.1001,0.0975,0.0979,0.1006,0.1013,0.1019,0.101,0.0925,0,0,0,0,0,0.0682,0.0703,0.0733,0.0756,0.0771,0.08,0.0819,0.084,0.0869,0.0886,0.0911,0.0938,0.0963,0.0984,0.1002,0.104,0.1044,0.1061,0.1067,0.1072,0.1069,0.1119,0.113,0.1019,0.1019,0.1019,0,0,0.0683,0.0705,0.0717,0.0756,0.0779,0.0807,0.0814,0.085,0.088,0.0886,0.094,0.0959,0.0976,0.102,0.104,0.103,0.1105,0.1076,0.108,0.1074,0.1124,0.1134,0.1144,0.1021,0.102,0.102,0,0,0.0689,0.0717,0.0736,0.0762,0.0804,0.0825,0.084,0.088,0.0908,0.0957,0.0969,0.1008,0.1048,0.107,0.1083,0.1133,0.1132,0.1141,0.1171,0.1221,0.123,0.1239,0.1251,0.126,0.1149,0.1149,0.1149,0,0.069,0.072,0.0747,0.0772,0.0799,0.0835,0.0863,0.0895,0.0947,0.0972,0.0982,0.1058,0.1071,0.1124,0.114,0.1147,0.1163,0.1142,0.1229,0.1237,0.1245,0.1255,0.1265,0.1151,0.1151,0.1151,0.1151,0,0.0707,0.0739,0.0754,0.0799,0.0831,0.0864,0.0908,0.0949,0.0988,0.1016,0.1084,0.1117,0.1164,0.1175,0.1172,0.1236,0.1224,0.1227,0.121,0.1259,0.1267,0.1276,0.1155,0.1154,0.1154,0.1153,0,0,0.0682,0.0752,0.0758,0.0786,0.0851,0.0874,0.0933,0.0989,0.103,0.1088,0.1148,0.1194,0.122,0.1236,0.1253,0.1289,0.1351,0.1283,0.1284,0.1292,0.1443,0.1398,0.1403,0.1379,0.1381,0.1383,0.1422,0,0.0689,0.0737,0.0775,0.0827,0.0858,0.0912,0.0961,0.1017,0.1074,0.1141,0.119,0.1251,0.1244,0.1282,0.1321,0.1345,0.1379,0.1338,0.1395,0.1396,0.1349,0.1414,0.139,0.1429,0.1431,0.1433,0.1434,0,0.0689,0.0725,0.0775,0.0847,0.0865,0.0905,0.0992,0.1043,0.1135,0.1183,0.1259,0.1301,0.137,0.1362,0.1439,0.1418,0.1433,0.1444,0.1446,0.1392,0.1369,0.1372,0.145,0.1448,0.1447,0.1446,0.1445,0,0.0652,0.0724,0.0765,0.0789,0.0875,0.0913,0.0967,0.1055,0.111,0.1222,0.128,0.1363,0.1429,0.1468,0.1508,0.1482,0.1585,0.1553,0.1522,0.1517,0.1521,0.1512,0.1608,0.1608,0.1608,0.1608,0.1608,0,0.064,0.0671,0.0753,0.0774,0.083,0.0898,0.0971,0.1038,0.1144,0.1218,0.1307,0.1386,0.1463,0.1535,0.1542,0.1571,0.1623,0.1534,0.1537,0.1538,0.153,0.1527,0.1517,0.1609,0.1609,0.1609,0.1608,0,0.0592,0.0646,0.0694,0.0783,0.0815,0.0856,0.097,0.1022,0.1132,0.1242,0.1286,0.1421,0.1518,0.1582,0.1654,0.1618,0.1644,0.1641,0.1637,0.1638,0.152,0.1513,0.1584,0.1583,0.1582,0.1581,0.1581,0,0.0571,0.0591,0.0685,0.0718,0.0762,0.0837,0.0891,0.1006,0.1071,0.1258,0.1306,0.1449,0.1532,0.1593,0.1657,0.1684,0.167,0.1654,0.1575,0.1528,0.1524,0.1518,0.1511,0.1579,0.1579,0.1579,0.1579,0,0.0526,0.0563,0.0602,0.0673,0.0732,0.0794,0.0885,0.0926,0.1075,0.1182,0.131,0.1389,0.1504,0.1565,0.1619,0.1629,0.1645,0.1644,0.1644,0.157,0.1524,0.1519,0.1514,0.1576,0.1576,0.1577,0.1577,0,0.0486,0.0502,0.056,0.0619,0.0687,0.0742,0.0796,0.0892,0.0972,0.1177,0.1219,0.1381,0.1498,0.154,0.1588,0.1608,0.1565,0.149,0.1497,0.1501,0.1461,0.139,0.1415,0,0,0,0,0,0.0447,0.0462,0.0507,0.0569,0.0635,0.068,0.079,0.0851,0.0996,0.1061,0.1141,0.1251,0.1359,0.1434,0.1437,0.1537,0.1556,0.1532,0.1468,0.156,0.1563,0.1526,0,0,0,0,0,0,0.0417,0.0451,0.0481,0.0515,0.0551,0.062,0.0688,0.0787,0.0831,0.0986,0.1049,0.117,0.1283,0.1343,0.1409,0.1432,0.1367,0.1626,0.1623,0.1558,0.1561,0.1564,0.1527,0,0,0,0,0]},{"header":{"parameterUnit":"m.s-1","parameterCategory":2,"la1":30.2991,"la2":30.254,"lo1":-89.0895,"lo2":-89.0444,"dy":0.0017,"dx":0.0017,"nx":28,"ny":28,"refTime":"2025-11-08T03:00:00:Z","depth":"4","parameterNumber":3,"parameterNumberName":"V-component_of_CURRENTS"},"data":[0,0,0,0,0,0,0,0,0,0,0,0,0,0,0,0,0,0,0,0,0,0,0,0,0,0,0,0,0,0,0,0,0,0,0,0,0,0,0,0,0,0,0,0,0,0,0,0,0,0,0,0,0,0,0,0,0,0,0.0186,0.0186,0,0.0139,0.0138,0.0137,0.0103,0.0103,0.0102,0.0102,0.0035,0.0033,0.0032,0,0,0,0,0,0,0,0,0,0,0,0,0,0.0213,0.0213,0.0186,0.0186,0.0185,0.0139,0.0138,0.0137,0.0103,0.0103,0.0102,0.0102,0.0035,0.0033,0.0032,0,0,0,0,0,0,0,0,0,0,0,0,0,0.0187,0.0213,0.0186,0.0163,0.016,0.0139,0.0138,0.0137,0.0103,0.0103,0.0102,0.0102,0.0036,0.0034,0.0031,0.0024,0,0,0.0024,0.0023,0,0,0,0,0,0,0,0,0.0188,0.0186,0.0167,0.0164,0.0161,0.0127,0.0123,0.0099,0.0103,0.0124,0.0102,0.0102,0.0064,0.006,0.0051,0.0021,0.0018,0.0024,0.0023,0.0021,0.0021,0,0,0,0,0,0,0,0.019,0.0187,0.0167,0.0166,0.0163,0.0143,0.0139,0.0118,0.0096,0.0122,0.012,0.0115,0.0062,0.0053,0.0049,0.0017,0.0024,0.0022,0.002,0.002,-0.0023,-0.0023,0,0,0,0,0,0,0.0199,0.0189,0.0168,0.0165,0.0175,0.0143,0.0138,0.0138,0.0097,0.009,0.0116,0.0114,0.0058,0.0052,0.0047,0.0051,0.0022,0.0019,0.0018,-0.0023,-0.0023,-0.0023,0,0,0,0,0,0,0.02,0.0198,0.017,0.0176,0.0172,0.0143,0.0142,0.0137,0.0127,0.0092,0.0085,0.0111,0.0057,0.005,0.0029,0.0048,0.0018,0.0016,-0.0023,-0.0023,-0.0023,0.0051,0,0,0,0,0,0,0.0201,0.0199,0.0202,0.0177,0.0172,0.0164,0.0143,0.0136,0.0125,0.0122,0.0086,0.0079,0.0056,0.0032,0.0026,0.0044,0.0014,-0.0024,-0.0023,-0.0023,0.0048,0.0054,0.0058,0,0,0,0,0,0.0202,0.0214,0.0203,0.02,0.0177,0.0165,0.016,0.0138,0.0125,0.0126,0.0098,0.008,0.0031,0.003,0.0023,0.0041,-0.0024,-0.0023,-0.0023,0.0046,0.0053,0.0058,0,0,0,0,0,0,0.0229,0.021,0.0198,0.0203,0.0186,0.0159,0.0159,0.0141,0.0119,0.0116,0.0081,0.0072,0.006,0.0037,0.0037,0.0029,0.0002,0.0001,0.0056,0.0063,0.0068,0.0093,0.0012,0,0,0,0,0,0.0236,0.0239,0.0215,0.0219,0.0214,0.0186,0.0178,0.0162,0.0139,0.0129,0.0103,0.0077,0.0058,0.0049,0.0025,0.0021,-0.0015,0.0027,0.0033,0.0037,0.0052,0.0013,0.0016,-0.002,-0.002,-0.0021,0,0,0.0248,0.0238,0.024,0.0225,0.0211,0.0214,0.018,0.0173,0.0177,0.0125,0.0123,0.0091,0.0058,0.0054,0.0047,0.0038,0.0024,0.0038,0.0043,0.0055,0.0014,0.0018,0.0021,-0.002,-0.002,-0.002,0,0,0.0276,0.0264,0.0276,0.0268,0.025,0.0235,0.0235,0.0208,0.0199,0.0187,0.0155,0.0137,0.0103,0.0092,0.008,0.0099,0.005,0.0087,0.0141,0.0103,0.0106,0.0108,0.0051,0.0048,0.0095,0.0096,0.0096,0,0.0289,0.03,0.0277,0.0287,0.0287,0.0249,0.0263,0.0252,0.0222,0.022,0.0196,0.0154,0.0127,0.013,0.0139,0.0114,0.0073,0.0123,0.0111,0.0113,0.0114,0.0055,0.005,0.0099,0.0099,0.0098,0.0098,0,0.0323,0.0334,0.0342,0.0343,0.034,0.0345,0.0327,0.0324,0.0303,0.0287,0.0275,0.0233,0.0208,0.02,0.0177,0.0179,0.0139,0.0119,0.01,0.0122,0.0058,0.0052,0.0104,0.0103,0.0102,0.0101,0,0,0.0345,0.0363,0.0365,0.0377,0.037,0.0371,0.0387,0.0387,0.0392,0.0364,0.0366,0.0343,0.031,0.0295,0.0259,0.0238,0.0205,0.0191,0.0187,0.0142,0.0102,0.0056,0.0044,0.018,0.0179,0.0179,0.0048,0,0.0375,0.041,0.0411,0.0444,0.0457,0.0444,0.0461,0.0457,0.0438,0.0428,0.0396,0.0374,0.0349,0.0327,0.0308,0.0222,0.0195,0.0242,0.008,0.0075,0.0039,0.0038,0.0179,0.0043,0.0042,0.0041,0.004,0,0.04,0.0421,0.0462,0.0493,0.0498,0.0516,0.0529,0.0537,0.0523,0.0506,0.0486,0.044,0.0408,0.0374,0.0266,0.0292,0.0213,0.0151,0.0144,0.0076,0.0019,0.0018,0.0028,0.0029,0.003,0.0031,0.0031,0,0.0411,0.0454,0.049,0.0499,0.0528,0.055,0.0563,0.0562,0.0565,0.0544,0.0524,0.0483,0.0427,0.0352,0.0217,0.0237,0.0076,0.008,-0.0032,-0.0038,0.0011,0.001,0.0014,0.0014,0.0015,0.0015,0.0015,0,0.0431,0.0458,0.0501,0.0517,0.0559,0.0573,0.0603,0.0607,0.0603,0.0597,0.0558,0.052,0.0417,0.0308,0.0216,0.0055,0.0065,-0.0023,-0.0069,0.0041,0.0045,0.0005,0.0006,0.001,0.0011,0.0012,0.0013,0,0.0424,0.0457,0.0496,0.0545,0.0563,0.0587,0.0624,0.0634,0.0631,0.0614,0.0603,0.0523,0.038,0.0254,0.0092,0.0026,-0.0105,-0.0165,-0.0064,-0.0103,-0.0188,-0.0182,-0.0279,-0.0281,-0.0283,-0.0285,-0.0287,0,0.0419,0.044,0.0505,0.0526,0.055,0.0591,0.0613,0.064,0.0645,0.0607,0.0589,0.0459,0.0387,0.0126,0.0002,-0.0193,-0.021,-0.0275,-0.0185,-0.018,-0.0215,-0.0206,-0.0197,-0.029,-0.0291,-0.0291,-0.0292,0,0.0397,0.0425,0.0456,0.0504,0.054,0.0583,0.0618,0.0628,0.0642,0.0638,0.0563,0.0445,0.027,0.0106,-0.0073,-0.0198,-0.0222,-0.0298,-0.0292,-0.0208,-0.0195,-0.0226,-0.0215,-0.03,-0.0299,-0.0298,-0.0297,0,0.0368,0.0383,0.0423,0.0467,0.0513,0.0555,0.0589,0.0596,0.0608,0.0588,0.0552,0.0399,0.0316,0.0098,-0.0059,-0.0202,-0.0203,-0.0206,-0.0205,-0.0198,-0.0127,-0.0096,-0.0209,0,0,0,0,0,0.0329,0.0344,0.0379,0.0431,0.0483,0.0519,0.0574,0.0606,0.0629,0.058,0.0576,0.0423,0.0199,0.0104,-0.0047,-0.01,-0.024,-0.0278,-0.0244,-0.0342,-0.0333,-0.0266,0,0,0,0,0,0,0.0296,0.0324,0.0357,0.0393,0.043,0.0486,0.0532,0.0558,0.0542,0.0548,0.0429,0.0393,0.0168,0.0274,-0.0052,-0.0095,-0.0089,-0.0379,-0.0381,-0.0347,-0.0339,-0.0332,-0.0259,0,0,0,0,0]}]]